[[{"header":{"parameterUnit":"m.s-1","parameterCategory":1,"la1":30.2991,"la2":30.254,"lo1":-89.0895,"lo2":-89.0444,"dy":0.0017,"dx":0.0017,"nx":28,"ny":28,"refTime":"2024-02-01T09:00:00:Z","depth":0,"parameterNumber":2,"parameterNumberName":"U-component_of_WINDS"},"data":[0,0,0,0,0,0,0,0,0,0,0,0,0,0,0,0,0,0,0,0,0,0,0,0,0,0,0,0,0,0,0,0,0,0,0,0,0,0,0,0,0,0,0,0,0,0,0,0,0,0,0,0,0,0,0,0,0,0,0.0602,0.0603,0,0.0724,0.0726,0.0727,0.0771,0.0771,0.0771,0.077,0.0899,0.0902,0.0906,0,0,0,0,0,0,0,0,0,0,0,0,0,0.0408,0.0412,0.0602,0.0603,0.0605,0.0724,0.0726,0.0728,0.0772,0.0771,0.077,0.077,0.0898,0.0902,0.0907,0,0,0,0,0,0,0,0,0,0,0,0,0,0.0508,0.0413,0.0602,0.0641,0.0646,0.0724,0.0726,0.0728,0.0772,0.0771,0.077,0.077,0.0896,0.0902,0.0907,0.0956,0,0,0.0925,0.0927,0,0,0,0,0,0,0,0,0.0502,0.0515,0.0634,0.0639,0.0644,0.0732,0.0705,0.0805,0.0772,0.0724,0.077,0.0769,0.0844,0.0854,0.0879,0.0962,0.0967,0.0925,0.0929,0.0931,0.0933,0,0,0,0,0,0,0,0.0495,0.051,0.0651,0.0636,0.0642,0.0654,0.0667,0.0724,0.0786,0.0728,0.0732,0.0745,0.0847,0.0873,0.0882,0.0969,0.0925,0.093,0.0934,0.0936,0.1098,0.1098,0,0,0,0,0,0,0.0481,0.0504,0.0647,0.0654,0.057,0.0658,0.0673,0.0704,0.0786,0.0797,0.0746,0.0747,0.0863,0.0875,0.0887,0.0948,0.0931,0.0937,0.094,0.1097,0.1098,0.1099,0,0,0,0,0,0,0.0477,0.0494,0.0642,0.058,0.06,0.0662,0.0697,0.0707,0.0733,0.0799,0.0811,0.0761,0.0863,0.0878,0.0938,0.0953,0.0939,0.0944,0.1096,0.1097,0.1098,0.1072,0,0,0,0,0,0,0.0471,0.0492,0.051,0.058,0.0603,0.069,0.0698,0.071,0.0743,0.0745,0.0816,0.0827,0.0864,0.0929,0.0943,0.0961,0.0949,0.1095,0.1096,0.1098,0.1072,0.1072,0.1073,0,0,0,0,0,0.0464,0.0499,0.0511,0.0528,0.0627,0.0691,0.0704,0.0745,0.0744,0.0763,0.0805,0.0825,0.0949,0.0935,0.0951,0.0971,0.1094,0.1096,0.1098,0.1072,0.1072,0.1073,0,0,0,0,0,0,0.0431,0.0509,0.0523,0.0582,0.0629,0.0698,0.0724,0.0744,0.0794,0.0794,0.0843,0.0859,0.0914,0.0949,0.0931,0.1022,0.1023,0.1028,0.0997,0.0998,0.0999,0.0989,0.0954,0,0,0,0,0,0.043,0.0475,0.0541,0.0586,0.0609,0.0662,0.0692,0.0718,0.077,0.0791,0.0837,0.0887,0.0938,0.097,0.102,0.1077,0.1093,0.1098,0.1099,0.1099,0.1103,0.1135,0.1138,0.1105,0.1105,0.1105,0,0,0.043,0.0478,0.0503,0.058,0.062,0.0666,0.0679,0.0727,0.0761,0.0799,0.0857,0.0892,0.0952,0.101,0.1038,0.104,0.1115,0.1101,0.1101,0.1105,0.1137,0.114,0.1143,0.1106,0.1106,0.1106,0,0,0.0452,0.0493,0.0534,0.0574,0.0633,0.0669,0.0678,0.0744,0.0769,0.0828,0.0857,0.0899,0.0984,0.1025,0.1057,0.1093,0.1113,0.1108,0.111,0.1141,0.1143,0.1146,0.1159,0.1163,0.1112,0.1112,0.1111,0,0.0444,0.0513,0.0554,0.0599,0.0632,0.0667,0.0709,0.0746,0.0819,0.0842,0.0843,0.095,0.0993,0.106,0.1069,0.1094,0.1107,0.11,0.114,0.1143,0.1146,0.1158,0.1163,0.111,0.1111,0.1111,0.1111,0,0.05,0.0547,0.0574,0.0642,0.0678,0.0722,0.077,0.0802,0.0825,0.086,0.0919,0.0971,0.1032,0.105,0.1074,0.1121,0.112,0.113,0.1132,0.1147,0.116,0.1165,0.1109,0.1109,0.111,0.111,0,0,0.0506,0.0595,0.0604,0.0635,0.0703,0.0741,0.0786,0.0844,0.087,0.092,0.0959,0.103,0.1039,0.1075,0.1103,0.113,0.1155,0.1137,0.1139,0.1138,0.121,0.1202,0.1207,0.1168,0.1169,0.117,0.1205,0,0.0537,0.0619,0.0656,0.0721,0.0765,0.0798,0.0837,0.0883,0.0917,0.096,0.0997,0.1046,0.1055,0.1076,0.1104,0.1146,0.117,0.1144,0.1206,0.1208,0.119,0.1214,0.1206,0.1236,0.121,0.1211,0.1211,0,0.0584,0.0632,0.0701,0.0763,0.0783,0.0817,0.0873,0.0913,0.0966,0.0989,0.1028,0.1055,0.1104,0.1102,0.1171,0.1152,0.118,0.1204,0.1206,0.1214,0.1211,0.1222,0.1247,0.1251,0.122,0.1219,0.1218,0,0.0581,0.0663,0.0715,0.074,0.0814,0.0837,0.0869,0.0921,0.0953,0.1002,0.1023,0.1077,0.1107,0.1149,0.119,0.1185,0.1255,0.1256,0.1275,0.1274,0.1289,0.1288,0.1319,0.1306,0.1306,0.1306,0.1306,0,0.0612,0.0653,0.0714,0.0746,0.0793,0.0835,0.0881,0.0915,0.0961,0.1001,0.1032,0.1069,0.1121,0.1164,0.1196,0.1248,0.1261,0.1281,0.1289,0.1279,0.1276,0.1298,0.1297,0.1307,0.1307,0.1307,0.1306,0,0.0617,0.0659,0.0718,0.0782,0.0799,0.0831,0.0886,0.0918,0.0952,0.1002,0.1016,0.1071,0.1123,0.1167,0.1237,0.1259,0.1312,0.1322,0.1294,0.1298,0.1315,0.1312,0.1361,0.137,0.1351,0.1351,0.1351,0,0.0634,0.0666,0.0733,0.0761,0.0792,0.0837,0.0869,0.0912,0.0945,0.1007,0.1032,0.1086,0.1132,0.1214,0.126,0.1313,0.1324,0.1338,0.1333,0.132,0.1325,0.1322,0.1325,0.1338,0.1338,0.1338,0.1338,0,0.066,0.0679,0.0724,0.0776,0.0813,0.0857,0.0901,0.0922,0.0974,0.1009,0.1062,0.1097,0.1167,0.122,0.1278,0.1311,0.1333,0.1339,0.1346,0.1336,0.1318,0.1327,0.1294,0.1338,0.1338,0.1338,0.1338,0.1338,0.0671,0.0701,0.0752,0.0801,0.0839,0.0879,0.0912,0.095,0.0995,0.1054,0.1077,0.1131,0.1183,0.1262,0.1296,0.1339,0.1342,0.1353,0.1356,0.1357,0.1356,0.131,0.135,0.135,0.135,0.135,0.135,0,0.0698,0.0733,0.0777,0.0837,0.0876,0.0891,0.0941,0.0972,0.1019,0.1065,0.1109,0.1169,0.1221,0.127,0.1325,0.135,0.1361,0.1363,0.1362,0.1369,0.135,0.1338,0.1352,0.1352,0.1352,0.1352,0.1352,0.1352,0.0717,0.0768,0.0793,0.0863,0.0897,0.0949,0.0976,0.1014,0.105,0.1116,0.1159,0.119,0.1237,0.1295,0.1343,0.1357,0.1375,0.1374,0.139,0.1371,0.137,0.1369,0.1359,0.1377,0.1378,0.1406,0.1406,0.1406]},{"header":{"parameterUnit":"m.s-1","parameterCategory":1,"la1":30.2991,"la2":30.254,"lo1":-89.0895,"lo2":-89.0444,"dy":0.0017,"dx":0.0017,"nx":28,"ny":28,"refTime":"2024-02-01T09:00:00:Z","depth":0,"parameterNumber":3,"parameterNumberName":"V-component_of_WINDS"},"data":[0,0,0,0,0,0,0,0,0,0,0,0,0,0,0,0,0,0,0,0,0,0,0,0,0,0,0,0,0,0,0,0,0,0,0,0,0,0,0,0,0,0,0,0,0,0,0,0,0,0,0,0,0,0,0,0,0,0,1.5417,1.5417,0,1.5373,1.5373,1.5372,1.5373,1.5374,1.5374,1.5375,1.5324,1.5322,1.532,0,0,0,0,0,0,0,0,0,0,0,0,0,1.5497,1.5495,1.5417,1.5417,1.5416,1.5373,1.5372,1.5372,1.5373,1.5374,1.5375,1.5375,1.5324,1.5322,1.532,0,0,0,0,0,0,0,0,0,0,0,0,0,1.5458,1.5495,1.5417,1.5412,1.5411,1.5373,1.5372,1.5372,1.5373,1.5374,1.5375,1.5376,1.5325,1.5322,1.5319,1.5283,0,0,1.531,1.5309,0,0,0,0,0,0,0,0,1.546,1.5455,1.5413,1.5412,1.5411,1.538,1.5382,1.5342,1.5373,1.5387,1.5375,1.5376,1.5341,1.5337,1.5326,1.528,1.5278,1.531,1.5308,1.5307,1.5306,0,0,0,0,0,0,0,1.5463,1.5457,1.54,1.5412,1.5411,1.5409,1.5405,1.5374,1.5359,1.5386,1.5386,1.5381,1.5341,1.5329,1.5325,1.5277,1.531,1.5308,1.5306,1.5305,1.5198,1.5197,0,0,0,0,0,0,1.5468,1.5459,1.5401,1.5398,1.5439,1.5407,1.5402,1.5389,1.536,1.5356,1.538,1.5381,1.5334,1.5329,1.5323,1.5278,1.5307,1.5304,1.5303,1.5199,1.5198,1.5197,0,0,0,0,0,0,1.5469,1.5463,1.5403,1.5429,1.5421,1.5405,1.539,1.5387,1.5376,1.5355,1.5352,1.5372,1.5334,1.5328,1.5293,1.5277,1.5303,1.5301,1.52,1.5199,1.5197,1.5188,0,0,0,0,0,0,1.5472,1.5463,1.545,1.5429,1.542,1.5375,1.5389,1.5386,1.5372,1.5373,1.5347,1.5343,1.5335,1.5298,1.529,1.5273,1.5298,1.5202,1.52,1.5198,1.519,1.5186,1.5184,0,0,0,0,0,1.5475,1.5448,1.545,1.5443,1.5404,1.5374,1.5369,1.5361,1.537,1.5356,1.5343,1.5344,1.528,1.5294,1.5286,1.5268,1.5203,1.52,1.5198,1.5191,1.5187,1.5184,0,0,0,0,0,0,1.5466,1.5445,1.5447,1.5413,1.5396,1.5374,1.5357,1.5357,1.5335,1.5336,1.5326,1.532,1.5286,1.5273,1.5289,1.523,1.5242,1.5238,1.524,1.5236,1.5233,1.5236,1.5296,0,0,0,0,0,1.5461,1.5441,1.5423,1.5394,1.5386,1.5373,1.5359,1.5355,1.5336,1.5328,1.5312,1.5292,1.5267,1.5251,1.5227,1.5188,1.5182,1.5171,1.5168,1.5166,1.5162,1.514,1.5135,1.5189,1.5189,1.5189,0,0,1.5449,1.5435,1.5422,1.5393,1.5379,1.5356,1.5366,1.5342,1.5324,1.5323,1.5291,1.5278,1.5254,1.5218,1.5201,1.5206,1.5146,1.5163,1.5161,1.5158,1.5137,1.5132,1.5127,1.5187,1.5187,1.5188,0,0,1.5416,1.5404,1.5379,1.5365,1.5345,1.5336,1.533,1.5309,1.5301,1.5269,1.5268,1.5245,1.5203,1.5186,1.5172,1.5133,1.5132,1.5125,1.5108,1.5087,1.5082,1.5078,1.5064,1.5059,1.5121,1.5121,1.5121,0,1.5403,1.5371,1.5366,1.5342,1.5328,1.5328,1.5302,1.5288,1.526,1.5249,1.5256,1.5203,1.5187,1.5147,1.5137,1.5126,1.5117,1.5128,1.5084,1.508,1.5076,1.5062,1.5056,1.512,1.5121,1.5121,1.5121,0,1.5356,1.5333,1.5315,1.5291,1.5275,1.525,1.5239,1.5223,1.522,1.5211,1.5176,1.5158,1.513,1.512,1.5116,1.5078,1.5082,1.5086,1.5098,1.507,1.5057,1.5051,1.5119,1.512,1.512,1.512,0,0,1.5316,1.5289,1.5283,1.5271,1.5249,1.523,1.5204,1.5179,1.5165,1.5145,1.5123,1.5087,1.5091,1.5075,1.5069,1.5051,1.502,1.5057,1.5056,1.505,1.4976,1.4973,1.4967,1.502,1.5019,1.5018,1.4978,0,1.528,1.5237,1.5231,1.5192,1.517,1.517,1.5148,1.513,1.512,1.5099,1.5087,1.5062,1.507,1.506,1.5042,1.5028,1.5005,1.503,1.4996,1.4995,1.5002,1.496,1.4956,1.4919,1.4973,1.4972,1.4971,0,1.5232,1.5214,1.5173,1.5153,1.5144,1.5124,1.51,1.5081,1.506,1.5054,1.5037,1.5033,1.5004,1.5018,1.4977,1.4995,1.498,1.4971,1.497,1.4966,1.4981,1.4954,1.4907,1.4902,1.4963,1.4963,1.4964,0,1.5207,1.5171,1.5142,1.5132,1.5109,1.5095,1.5084,1.5065,1.505,1.5028,1.5018,1.4993,1.4979,1.4958,1.4947,1.4958,1.4907,1.492,1.49,1.49,1.4889,1.4889,1.4839,1.488,1.488,1.488,1.4881,0,1.5167,1.5142,1.5131,1.5113,1.5084,1.5077,1.5048,1.5037,1.502,1.4999,1.4996,1.4976,1.4963,1.494,1.4931,1.4898,1.4892,1.4885,1.4883,1.4885,1.4886,1.4875,1.4877,1.4879,1.4879,1.488,1.488,0,1.5134,1.5125,1.5094,1.5075,1.5069,1.5049,1.5031,1.5013,1.5003,1.4976,1.4969,1.4953,1.4926,1.4914,1.4879,1.4873,1.4836,1.4835,1.4843,1.4842,1.4823,1.4825,1.4763,1.4754,1.4802,1.4802,1.4801,0,1.5109,1.509,1.5069,1.5056,1.5045,1.5023,1.5009,1.5001,1.4985,1.4961,1.4945,1.4918,1.4896,1.4852,1.4836,1.481,1.4808,1.4789,1.4804,1.4807,1.4807,1.4809,1.4806,1.4786,1.4785,1.4785,1.4784,0,1.5066,1.5062,1.5043,1.5021,1.5004,1.4986,1.4969,1.4957,1.4946,1.4928,1.4902,1.4885,1.4851,1.4824,1.4796,1.4783,1.4781,1.478,1.4774,1.4776,1.4781,1.4777,1.4835,1.4781,1.4781,1.4782,1.4782,1.4782,1.5035,1.5018,1.5001,1.4979,1.4965,1.4949,1.4931,1.492,1.4898,1.4872,1.4867,1.4839,1.4818,1.4781,1.4767,1.4743,1.4747,1.4738,1.4736,1.4734,1.4732,1.4785,1.4737,1.4738,1.4738,1.4738,1.4738,0,1.4991,1.4981,1.496,1.4937,1.4919,1.4921,1.4902,1.4886,1.4862,1.4843,1.4823,1.4791,1.4765,1.4747,1.472,1.4704,1.4703,1.4697,1.4698,1.4695,1.473,1.4738,1.4699,1.4699,1.4699,1.4699,1.4699,1.4699,1.4966,1.4938,1.4933,1.4897,1.4885,1.4859,1.4848,1.4832,1.4817,1.4784,1.4763,1.4752,1.4733,1.4705,1.468,1.4676,1.4665,1.466,1.4655,1.4688,1.4692,1.4696,1.4704,1.4658,1.4658,1.4622,1.4621,1.4621]}]]